www.pogodaiklimat.ru

Погода и климат >> Архив погоды >> Мексика >> Tuxpan


ПОГОДА в Tuxpan

  • Прогноз погоды в Tuxpan
  • Монитор погоды в Tuxpan
  • Климат города

АРХИВ ПОГОДЫ в Tuxpan

Время (UTC), дата Ветер
(напр.,м/с)
 
Видим.   Явления Облачность Т
(С)
Тd
(С)
f
(%)
Тe
(С)
Тes
(С)
Комфортность P
(гПа)
Po
(гПа)
Тmin
(С)
Tmax
(С)
R
(мм)
R24
(мм)
S
(см)
12 15.11 штиль 0 1000 м ясно +20.4 +19.8 96 +24 +24 комфорт 1014.5 1013.4 +20.2 +30.6
15 15.11 ЮЗ 1 8000 м {туман} 1/1 90 м
[St]
+21.2 +20.6 96 +26 +30 душно 1018.1 1016.9
18 15.11 ЮЗ 1 8000 м ясно +26.4 +23.2 83 +36 +50 очень
душно
1017.2 1016.0 +19.6 +27.8
21 15.11 ЮЗ 1 8000 м 1/1 540 м
[Cu hum]
+29.2 +25.0 78 +42 +50 опасность
перегрева
1014.8 1013.7
00 16.11 ЮЗ 1 8000 м ясно +27.0 +25.3 90 +39 +39 очень
душно
1015.4 1014.3 +19.6 +30.6
03 16.11 штиль 0 1000 м ясно +24.2 +23.3 95 +32 +32 очень
душно
1016.2 1015.0
06 16.11 штиль 0 1000 м ясно +23.6 +22.7 95 +31 +31 очень
душно
1016.3 1015.2 +19.6 +30.6
09 16.11 штиль 0 1000 м ясно +23.0 +22.4 96 +31 +31 очень
душно
1015.4 1014.3
12 16.11 штиль 0 1000 м ясно +21.0 +20.4 96 +26 +26 душно 1016.4 1015.2 +20.6
15 16.11 ЮЗ 1 8000 м {туман} 3/3 210 м
[Cu hum]
+21.8 +20.3 91 +28 +31 душно 1020.4 1019.2
18 16.11 ЮЗ 1 8000 м 4/4 500 м
[Cu med, cong]
+27.6 +23.6 79 +38 +46 очень
душно
1019.9 1018.7 +19.8 +29.0
21 16.11 СЗ 1 8000 м 3/3 540 м
[Cu med, cong]
+29.0 +24.8 78 +41 +47 опасность
перегрева
1017.2 1016.0
00 17.11 СЗ 1 8000 м ясно +27.2 +25.2 89 +39 +39 очень
душно
1017.7 1016.6 +19.8 +30.8
03 17.11 штиль 0 1000 м ясно +24.2 +23.9 98 +33 +33 очень
душно
1019.8 1018.7
06 17.11 штиль 0 1000 м ясно +23.2 +22.9 98 +32 +32 очень
душно
1018.5 1017.4 +19.8 +30.6
15 17.11 СЗ 2 8000 м дымка {туман} 5/3 120 м
[Sc diur, vesp Ac trans]
+23.0 +22.1 95 +31 +33 очень
душно
1020.2 1019.0
18 17.11 СВ 2 8000 м 4/4 400 м
[Cu med, cong]
+27.2 +24.1 83 +38 +45 очень
душно
1018.9 1017.7 +21.2 +28.8
21 17.11 ЮВ 2 8000 м ясно +28.4 +25.0 82 +41 +48 опасность
перегрева
1015.8 1014.6
00 18.11 ЮВ 2 8000 м 3/1 200 м
[Cu med, cong Ac trans]
+27.0 +24.7 87 +38 +38 очень
душно
1015.5 1014.4 +21.2 +30.0
03 18.11 ЮВ 2 1000 м 3/3 120 м
[Cu med, cong]
+25.2 +24.3 95 +35 +35 очень
душно
1017.2 1016.0
06 18.11 ЮВ 2 1000 м 4/4 60 м
[Cu med, cong]
+23.8 +23.2 96 +32 +32 очень
душно
1016.8 1015.6 +21.2 +30.0
09 18.11 ЮВ 1 1000 м 3/3 60 м
[Cu med, cong]
+22.4 +22.1 98 +30 +30 очень
душно
1015.1 1014.0
12 18.11 штиль 0 1000 м 4/3 30 м
[Cu med, cong]
+21.6 +21.4 99 +28 +28 очень
душно
1014.5 1013.3 +20.2 +30.0
15 18.11 ЮЗ 1 8000 м 4/4 150 м
[Cu med, cong]
+23.2 +22.0 93 +32 +34 очень
душно
1015.4 1014.2
18 18.11 ЮВ 1 8000 м 4/4 450 м
[Cu med, cong]
+27.6 +24.2 82 +39 +47 очень
душно
1014.2 1013.0 +20.2 +29.0
21 18.11 ЮВ 1 8000 м 4/4 450 м
[Cu med, cong]
+28.8 +25.2 81 +42 +47 опасность
перегрева
1011.3 1010.2
00 19.11 ЮВ 1 8000 м ясно +27.4 +24.0 82 +38 +38 очень
душно
1011.7 1010.6 +20.2 +30.4
03 19.11 ЮВ 2 1000 м ясно +25.0 +23.6 92 +34 +34 очень
душно
1013.7 1012.6
06 19.11 ЮВ 1 1000 м 4/4 30 м
[Cu med, cong]
+23.6 +23.3 98 +32 +32 очень
душно
1016.3 1015.2 +20.2 +30.4
09 19.11 С 1 1000 м 10/6 60 м
[Cu med, cong As op]
+23.4 +22.8 96 +33 +33 очень
душно
1018.5 1017.4
12 19.11 С 2 1000 м в посл. час морось 9/5 <50 м
[Sc As op]
+23.6 +23.3 98 +32 +32 очень
душно
1019.0 1017.8 0.4
15 19.11 С 3 8000 м {дождь} 10/6 90 м
[Sc As op]
+20.4 +19.8 96 +25 +25 комфорт 1022.8 1021.6 16
18 19.11 С 2 8000 м {морось} 10/8 50 м
[Sc As op]
+18.2 +17.9 98 +19 +20 1025.1 1023.9 17
21 19.11 С 3 8000 м 10/5 330 м
[Sc As op]
+19.6 +17.0 85 +22 +23 комфорт 1023.5 1022.3
00 20.11 С 2 7000 м 10/4 200 м
[Sc Ac trans]
+18.4 +16.8 90 +20 +20 1023.9 1022.7 +17.2 +25.2
03 20.11 С 2 1000 м 10/5 210 м
[Sc As op]
+17.8 +16.2 90 +18 +18 1025.3 1024.1
06 20.11 С 3 1000 м 10/5 210 м
[Sc As op]
+17.4 +15.8 90 +17 +17 1025.0 1023.8 +16.2 +25.2
09 20.11 С 2 1000 м 9/5 180 м
[Sc As op]
+17.8 +16.5 92 +18 +18 1023.0 1021.8
12 20.11 С 2 1000 м 9/5 60 м
[Sc As op]
+17.4 +16.8 96 +18 +18 1020.9 1019.7 +16.2 +25.2
15 20.11 С 2 8000 м 9/5 210 м
[Sc As op]
+18.4 +16.8 90 +20 +20 1022.3 1021.1
18 20.11 СЗ 1 8000 м 8/5 480 м
[Sc diur, vesp As trans]
+22.2 +18.4 79 +19 +24 1021.4 1020.2 +16.2 +23.4
21 20.11 ЮЗ 1 8000 м 9/5 600 м
[Sc diur, vesp As op]
+25.2 +20.4 75 +31 +33 очень
душно
1018.7 1017.5
00 21.11 СЗ 2 7000 м 9/5 200 м
[Sc As op]
+23.2 +21.4 90 +31 +31 очень
душно
1017.5 1016.3 +16.2 +26.8
03 21.11 СЗ 1 1000 м 10/6 90 м
[Sc As op]
+21.8 +21.2 96 +28 +28 душно 1018.2 1017.0
06 21.11 СЗ 1 1000 м 6/4 60 м
[Sc diur, vesp As trans]
+21.0 +20.7 98 +27 +27 душно 1017.8 1016.7 +16.2 +26.8
09 21.11 СЗ 2 1000 м 6/3 60 м
[Sc diur, vesp Ac trans]
+20.0 +19.7 98 +24 +24 комфорт 1015.8 1014.6
12 21.11 СЗ 1 1000 м 5/1 60 м
[Cu med, cong As trans]
+19.2 +18.9 98 +22 +22 комфорт 1015.3 1014.1 +18.2 +26.8
15 21.11 СЗ 1 8000 м мгла {туман} 5/3 120 м
[Sc As trans]
+19.8 +18.9 95 +24 +26 комфорт 1015.4 1014.2
18 21.11 СЗ 2 8000 м {туман} 5/3 450 м
[Cu med, cong As trans]
+25.4 +21.9 81 +33 +40 очень
душно
1014.8 1013.6 +17.6 +26.8
21 21.11 ЮВ 2 8000 м 5/3 540 м
[Cu med, cong As trans]
+27.6 +23.3 77 +37 +41 очень
душно
1011.7 1010.5
00 22.11 ЮВ 2 8000 м 4/1 100 м
[Cu med, cong As trans]
+25.0 +23.6 92 +34 +34 очень
душно
1011.1 1010.0 +17.6 +29.2
03 22.11 штиль 0 1000 м ясно +22.6 +22.0 96 +30 +30 очень
душно
1010.0 1008.9
06 22.11 штиль 0 1000 м ясно +21.4 +20.8 96 +27 +27 душно 1012.1 1011.0 +17.6 +29.2

 

Местоположение метеостанции Tuxpan (Мексика): широта 20.95 долгота -97.40 высота над уровнем моря 28 м.

В архиве по умолчанию представлена погода в Tuxpan за последнюю неделю. Архивные данные за месяц целиком и за предыдущие месяцы, начиная с января 2011 года, Вы можете получить, выбрав интересующий диапазон дат из раскрывающегося списка и нажав кнопку "Ввод!".

Внимание! Время в таблицах - всемирное. Для получения местного времени необходимо прибавить поправку, которая в Tuxpan равна -6 ч.

Смотрите также архив погоды в соседних городах и на ближайших метеорологических станциях:

Погода в Tulancingo (Мексика) (140 км)
Погода в Tampico (Мексика) (147 км)
Погода в Matlapa (Мексика) (152 км)
Погода в Jalapa (Мексика) (164 км)
Погода в Pachuca (Мексика) (168 км)
Погода в Tamuin (Мексика) (183 км)
Погода в Tlaxcala (Мексика) (202 км)
Погода в Tlaxcala Airport (Мексика) (202 км)
Погода в Puebla (Мексика) (226 км)
Погода в Cordoba-In-Veracruz (Мексика) (233 км)

Пояснения к столбцам:

Ветер - указаны скорость ветра в м/с - средняя за 10 мин, порывы в срок и между сроками (в фигурных скобках) и направление, откуда дует ветер: С - северный, СВ - северо-восточный, В - восточный, ЮВ - юго-восточный, Ю - южный, ЮЗ - юго-западный, З - западный, СЗ - северо-западный.
Видимость - горизонтальная дальность видимости в метрах или километрах. При видимости от 1 до 10 км при отсутствии осадков обычно наблюдается дымка, при ухудшении видимости до 1 км и менее - туман. В сухую погоду видимость может ухудшаться дымом, пылью или мглою.
Явления - указаны атмосферные явления, наблюдавшиеся в срок или в последний час перед сроком; фигурными скобками обозначены явления, наблюдавшиеся между сроками (за 1-3 часа до срока); квадратными скобками обозначены град или гололедные отложения с указанием их диаметра в мм.
Облачность - указаны через наклонную черту общая и нижняя облачность в баллах и высота нижней границы облаков в метрах; квадратными скобками обозначены формы облаков: Ci - перистые, Cs - перисто-слоистые, Cc - перисто-кучевые, Ac - высококучевые, As - высокослоистые, Sc - слоисто-кучевые, Ns - слоисто-дождевые, Cu - кучевые, Cb - кучево-дождевые. Подробнее классификацию облаков см. в Атласе облаков (PDF).
T - Температура воздуха - температура, измеренная на высоте 2 м над землей.
Td - Температура точки росы - температура, при понижении до которой содержащийся в воздухе водяной пар достигнет насыщения.
f - Относительная влажность воздуха - влажноcть воздуха, измеренная на высоте 2 м над землей.
Te - Эффективная температура - температура, которую ощущает одетый по сезону человек в тени. Характеристика душности погоды. При расчете учитывается влияние влажности воздуха и скорости ветра на теплоощущения человека.
Tes - Эффективная температура на солнце - температура, которую ощущает человек, с поправкой на солнечный нагрев. Характеристика знойности погоды. Зависит от высоты солнца над горизонтом, облачности и скорости ветра. Ночью, в пасмурную погоду, а также при ветре 12 м/с и более поправка равна нулю.
P - Атмосферное давление - приведенное к уровню моря атмосферное давление.
Po - Атмосферное давление - измеренное на уровне метеостанции атмосферное давление.
Tmin - Минимальная температура - минимум температуры воздуха на высоте 2 м над землей.
Tmax - Максимальная температура - максимум температуры воздуха на высоте 2 м над землей.
R - Количество осадков - Количество выпавших осадков за период времени, мм. При наведении курсора мыши на число - период времени, за который выпало указанное количество осадков.
R24 - Количество осадков - Количество выпавших осадков за 24 часа, мм.
S - Снежный покров - Высота снежного покрова, см. При наведении курсора мыши на число - состояние снежного покрова и степень покрытия местности в баллах.